Home   Weather   Wright   Past weeks

Flag for USA Past Weather in Wright, Florida, USA — Yesterday and Last 2 Weeks

Now
72 °F

Mostly cloudy.


Feels Like: 72 °F
Forecast: 59 / 72 °F
Wind: 17 mph from Southwest

Location: Hurlburt Field

Current Time: Jan 21, 2017 at 10:10:21 pm

Latest Report: Jan 21, 2017 at 8:58 pm


Visibility: 7 mi

Pressure: 29.59 "Hg

Humidity: 79%

Dew Point: 65 °F

Location of WrightLocation

Past Weather in Wright — Graph

°F

Wright Temperature Yesterday

Maximum temperature yesterday: 73 °F (at 9:56 am)
Minimum temperature yesterday: 65 °F (at 5:58 am)
Average temperature yesterday: 69 °F

High & Low Weather Summary for the Past Weeks

 TemperatureHumidityPressure
High76 °F (Jan 19, 11:58 am)100% (Jan 12, 5:38 am)30.73 "Hg (Jan 12, 5:38 am)
Low23 °F (Jan 8, 6:58 am)18% (Jan 8, 1:58 pm)29.58 "Hg (Jan 21, 7:37 pm)
Average60 °F74%30.20 "Hg
* Reported Jan 6 8:58 pm — Jan 21 8:58 pm, Wright, Weather by CustomWeather, © 2017

Note: Actual official high and low records may vary slightly from our data, if they occured in-between our weather recording intervals... More about our weather records

Advertising

Wright Weather History for the Previous 24 Hours

Scroll right to see more
 ConditionsComfort  
Time TempWeatherWind HumidityBarometerVisibility
8:58 pm
Sat, Jan 21
72 °FMostly cloudy.17 mph79%29.59 "Hg7 mi
8:37 pm72 °FFog.17 mph78%29.59 "Hg7 mi
7:58 pm70 °FFog.16 mph79%29.59 "Hg6 mi
7:37 pm68 °FLow clouds.8 mph78%29.58 "Hg10 mi
7:22 pm68 °FThundershowers. Mostly cloudy.9 mph78%29.60 "Hg10 mi
7:09 pm68 °FMostly cloudy.5 mph73%29.60 "Hg10 mi
6:58 pm66 °FLight rain. Overcast.5 mph79%29.62 "Hg8 mi
5:58 pm66 °FPassing clouds.3 mph75%29.63 "Hg10 mi
4:55 pm66 °FPassing clouds.5 mph71%29.65 "Hg10 mi
3:58 pm66 °FOvercast.6 mph70%29.66 "Hg10 mi
2:58 pm66 °FOvercast.6 mph71%29.67 "Hg10 mi
2:13 pm66 °FOvercast.9 mph68%29.67 "Hg10 mi
1:58 pm66 °FOvercast.7 mph71%29.67 "Hg10 mi
1:27 pm66 °FPartly sunny.No wind73%29.69 "Hg10 mi
12:58 pm65 °FBroken clouds.7 mph76%29.71 "Hg10 mi
12:39 pm64 °FScattered clouds.5 mph78%29.70 "Hg10 mi
12:24 pm61 °FBroken clouds.5 mph83%29.71 "Hg10 mi
11:58 am61 °FThundershowers. Broken clouds.3 mph79%29.71 "Hg10 mi
11:31 am61 °FThunderstorms. Partly sunny.10 mph83%29.72 "Hg2 mi
11:10 am61 °FStrong thunderstorms. Dense fog.10 mph83%29.76 "Hg1 mi
10:58 am60 °FStrong thunderstorms. Dense fog.14 mph81%29.78 "Hg1 mi
10:40 am61 °FStrong thunderstorms. Dense fog.17 mph77%29.76 "Hg1 mi
10:36 am63 °FHeavy rain. Dense fog.20 mph73%29.76 "Hg1 mi
10:09 am73 °FLight rain. Overcast.15 mph69%29.76 "Hg5 mi
9:58 am73 °FMostly cloudy.17 mph71%29.75 "Hg10 mi
8:58 am73 °FPartly sunny.18 mph71%29.75 "Hg10 mi
7:55 am72 °FPartly sunny.15 mph73%29.76 "Hg10 mi
6:58 am71 °FOvercast.18 mph73%29.75 "Hg10 mi
5:58 am71 °FPartly sunny.14 mph74%29.75 "Hg10 mi
5:23 am70 °FPassing clouds.13 mph78%29.74 "Hg10 mi
4:58 am70 °FPassing clouds.16 mph75%29.72 "Hg10 mi
3:58 am71 °FPassing clouds.16 mph76%29.75 "Hg10 mi
2:58 am70 °FPassing clouds.9 mph77%29.78 "Hg10 mi
2:27 am70 °FMostly cloudy.8 mph73%29.79 "Hg10 mi
1:58 am70 °FPassing clouds.7 mph75%29.80 "Hg10 mi
12:58 am69 °FPassing clouds.7 mph74%29.83 "Hg10 mi
11:58 pm
Fri, Jan 20
69 °FOvercast.10 mph74%29.83 "Hg10 mi
10:58 pm68 °FClear.10 mph74%29.83 "Hg10 mi
10:13 pm70 °FPartly cloudy.10 mph73%29.84 "Hg10 mi
Weather by CustomWeather, © 2017

See weather overviewHow to use our weather pages